Charlwood, United Kingdom

3:39 PM GMT on February 20, 2017 (GMT +0000)
London Gatwick Airport

Weather History for EGKK - December, 2013

Change the Weather History Date:

Tuesday, December 10, 2013

  Actual Average Record
Temperature  
Mean Temperature 38 °F -  
Max Temperature 48 °F 45 °F 59 °F (1997)
Min Temperature 28 °F 34 °F 26 °F (2001)
Degree Days  
Heating Degree Days 27    
Moisture  
Dew Point 34 °F    
Average Humidity 95    
Maximum Humidity 100    
Minimum Humidity 81    
Precipitation  
Precipitation 0.00 in 0.10 in - ()
Sea Level Pressure  
Sea Level Pressure 30.45 in    
Wind  
Wind Speed 2 mph ()    
Max Wind Speed 6 mph    
Max Gust Speed -    
Visibility 2.0 miles    
Events Fog    
Averages and records for this station are not official NWS values.
T = Trace of Precipitation, MM = Missing Value Source: Averaged Metar Reports

Daily Weather History Graph

Daily Weather History Graph

Search for Another Location

Airport or City:

Trip Planner

Search our weather history database for the weather conditions in past years. The results will help you decide how hot, cold, wet, or windy it might be!

Date:

Astronomy

Dec. 10, 2013 Rise Set
Actual Time 7:53 AM GMT 3:53 PM GMT
Civil Twilight 7:14 AM GMT 4:32 PM GMT
Nautical Twilight 6:31 AM GMT 5:15 PM GMT
Astronomical Twilight 5:51 AM GMT 5:55 PM GMT
Moon 12:24 PM GMT (12/10) 12:14 AM GMT (12/10)
Length of Visible Light 9h 18m
Length of Day
7h 59m
First Quarter, 59% of the Moon is Illuminated
Dec 10
First Quarter
Dec 17
Full
Dec 25
Last Quarter
Jan 1
New
Jan 8
First Quarter

Hourly Weather History & Observations

Time (GMT) Temp. Windchill Dew Point Humidity Pressure Visibility Wind Dir Wind Speed Gust Speed Precip Events Conditions
12:20 AM 41.0 °F 39.0 °F 39.2 °F 93% 30.42 in 3.1 mi Variable 3.5 mph - N/A Fog Partly Cloudy
12:50 AM 35.6 °F - 35.6 °F 100% 30.42 in 1.9 mi Variable 2.3 mph - N/A Fog Mist
1:20 AM 30.2 °F - 30.2 °F 100% 30.42 in 1.9 mi Calm Calm - N/A   Scattered Clouds
1:50 AM 35.6 °F 32.8 °F 35.6 °F 100% 30.42 in 1.9 mi ENE 3.5 mph - N/A Fog Scattered Clouds
2:20 AM 32.0 °F - 30.2 °F 93% 30.42 in 1.2 mi Variable 2.3 mph - N/A   Partly Cloudy
2:50 AM 28.4 °F - 28.4 °F 100% 30.42 in 0.9 mi Calm Calm - N/A   Mostly Cloudy
3:20 AM 30.2 °F - 30.2 °F 100% 30.42 in 0.9 mi Variable 2.3 mph - N/A   Mostly Cloudy
3:50 AM 28.4 °F - 28.4 °F 100% 30.42 in 0.7 mi Variable 2.3 mph - N/A Fog Mist
4:20 AM 30.2 °F - 30.2 °F 100% 30.42 in 0.5 mi Calm Calm - N/A Fog Light Freezing Fog
4:50 AM 30.2 °F - 28.4 °F 93% 30.42 in 0.5 mi Calm Calm - N/A Fog Light Freezing Fog
5:20 AM 30.2 °F - 28.4 °F 93% 30.42 in 0.6 mi Calm Calm - N/A Fog Light Freezing Fog
5:50 AM 30.2 °F - 28.4 °F 93% 30.42 in 0.4 mi Calm Calm - N/A Fog Light Freezing Fog
6:20 AM 30.2 °F - 28.4 °F 93% 30.45 in 0.5 mi Variable 2.3 mph - N/A Fog Light Freezing Fog
6:50 AM 28.4 °F 24.6 °F 28.4 °F 100% 30.45 in 0.4 mi East 3.5 mph - N/A Fog Light Freezing Fog
7:20 AM 28.4 °F - 28.4 °F 100% 30.45 in 0.5 mi Variable 2.3 mph - N/A Fog Light Freezing Fog
7:50 AM 28.4 °F 23.3 °F 28.4 °F 100% 30.45 in 0.9 mi East 4.6 mph - N/A Fog Patches of Fog
8:20 AM 28.4 °F - 28.4 °F 100% 30.45 in 0.6 mi Variable 2.3 mph - N/A Fog Light Freezing Fog
8:50 AM 30.2 °F 26.7 °F 28.4 °F 93% 30.48 in 0.9 mi East 3.5 mph - N/A   Mostly Cloudy
9:20 AM 30.2 °F - 30.2 °F 100% 30.48 in 0.9 mi Variable 2.3 mph - N/A   Scattered Clouds
9:50 AM 32.0 °F - 32.0 °F 100% 30.48 in 0.9 mi Variable 2.3 mph - N/A   Scattered Clouds
10:20 AM 32.0 °F 28.7 °F 32.0 °F 100% 30.48 in 1.0 mi ESE 3.5 mph - N/A   Mostly Cloudy
10:50 AM 33.8 °F 30.8 °F 33.8 °F 100% 30.48 in 1.9 mi East 3.5 mph - N/A   Scattered Clouds
11:20 AM 35.6 °F - 35.6 °F 100% 30.48 in 1.9 mi Variable 2.3 mph - N/A   Partly Cloudy
11:50 AM 37.4 °F 33.8 °F 37.4 °F 100% 30.48 in 3.1 mi East 4.6 mph - N/A   Mist
12:20 PM 41.0 °F 39.0 °F 39.2 °F 93% 30.45 in 4.3 mi East 3.5 mph - N/A   Scattered Clouds
12:50 PM 41.0 °F 39.0 °F 41.0 °F 100% 30.45 in 4.3 mi East 3.5 mph - N/A   Partly Cloudy
1:20 PM 46.4 °F - 44.6 °F 93% 30.45 in 3.7 mi Calm Calm - N/A   Scattered Clouds
1:50 PM 48.2 °F - 44.6 °F 87% 30.45 in 5.0 mi Variable 3.5 mph - N/A   Partly Cloudy
2:20 PM 48.2 °F - 42.8 °F 82% 30.45 in 4.3 mi SSE 4.6 mph - N/A   Partly Cloudy
2:50 PM 48.2 °F - 42.8 °F 82% 30.45 in 4.3 mi SSE 3.5 mph - N/A   Scattered Clouds
3:20 PM 46.4 °F 45.2 °F 42.8 °F 87% 30.45 in 3.7 mi Variable 3.5 mph - N/A   Mostly Cloudy
3:50 PM 46.4 °F - 42.8 °F 87% 30.48 in 4.3 mi SSE 2.3 mph - N/A   Mostly Cloudy
4:20 PM 46.4 °F 45.2 °F 42.8 °F 87% 30.48 in 4.3 mi Variable 3.5 mph - N/A   Mostly Cloudy
4:50 PM 46.4 °F 43.5 °F 42.8 °F 87% 30.48 in 5.0 mi SSW 5.8 mph - N/A   Mostly Cloudy
5:20 PM 46.4 °F 45.2 °F 41.0 °F 81% 30.48 in 5.6 mi Variable 3.5 mph - N/A   Mostly Cloudy
5:50 PM 42.8 °F 41.1 °F 39.2 °F 87% 30.48 in 4.3 mi Variable 3.5 mph - N/A   Mostly Cloudy
6:20 PM 41.0 °F 39.0 °F 39.2 °F 93% 30.48 in 3.7 mi ESE 3.5 mph - N/A   Mostly Cloudy
6:50 PM 39.2 °F 37.0 °F 39.2 °F 100% 30.48 in 3.7 mi ESE 3.5 mph - N/A   Partly Cloudy
7:20 PM 39.2 °F 35.9 °F 37.4 °F 93% 30.48 in 2.5 mi East 4.6 mph - N/A Fog Scattered Clouds
7:50 PM 37.4 °F 34.9 °F 35.6 °F 93% 30.48 in 1.1 mi ESE 3.5 mph - N/A Fog Partly Cloudy
8:20 PM 37.4 °F 34.9 °F 37.4 °F 100% 30.45 in 0.7 mi ESE 3.5 mph - N/A Fog Scattered Clouds
8:50 PM 33.8 °F - 32.0 °F 93% 30.45 in 0.2 mi East 2.3 mph - N/A Fog Fog
9:20 PM 33.8 °F - 32.0 °F 93% 30.45 in 0.1 mi Calm Calm - N/A Fog Fog
9:50 PM 32.0 °F 27.5 °F 30.2 °F 93% 30.48 in 0.1 mi East 4.6 mph - N/A Fog Light Freezing Fog
10:20 PM 30.2 °F 26.7 °F 30.2 °F 100% 30.48 in 0.1 mi ENE 3.5 mph - N/A Fog Light Freezing Fog
10:50 PM 30.2 °F 26.7 °F 30.2 °F 100% 30.48 in 0.1 mi Variable 3.5 mph - N/A Fog Light Freezing Fog
11:20 PM 30.2 °F 26.7 °F 30.2 °F 100% 30.45 in 0.1 mi East 3.5 mph - N/A Fog Light Freezing Fog
11:50 PM 30.2 °F - 30.2 °F 100% 30.45 in 0.1 mi Variable 2.3 mph - N/A Fog Light Freezing Fog